This is the latest recevied weather packets stored in our database for station/object W1REE. If no packets are shown the sender has not sent any weather packets the latest 10 day(s).
| Time | Temp. | Humidity | Pressure | Rain* | Wind** | Luminosity | Snow |
|---|---|---|---|---|---|---|---|
| 1777995352 | 4.44° C | 88% | 1015.6 hPa | 0 mm | - | 32 W/m² | - |
| 1777995049 | 4.44° C | 88% | 1015.7 hPa | 0 mm | - | 31 W/m² | - |
| 1777994746 | 4.44° C | 88% | 1015.4 hPa | 0 mm | - | 33 W/m² | - |
| 1777994442 | 4.44° C | 87% | 1015.6 hPa | 0 mm | - | 34 W/m² | - |
| 1777994137 | 4.44° C | 86% | 1015.6 hPa | 0 mm | - | 32 W/m² | - |
| 1777993835 | 5° C | 85% | 1015.4 hPa | 0 mm | - | 26 W/m² | - |
| 1777993531 | 5° C | 84% | 1015.4 hPa | 0 mm | - | 28 W/m² | - |
| 1777993227 | 5° C | 85% | 1015.6 hPa | 0 mm | - | 39 W/m² | - |
| 1777992923 | 5° C | 83% | 1015.6 hPa | 0 mm | - | 26 W/m² | - |
| 1777992622 | 5° C | 82% | 1015.7 hPa | 0 mm | - | 24 W/m² | - |
| 1777992319 | 5.56° C | 81% | 1015.4 hPa | 0 mm | - | 25 W/m² | - |
| 1777992016 | 5.56° C | 80% | 1015.4 hPa | 0 mm | - | 27 W/m² | - |
| 1777991714 | 5.56° C | 81% | 1015.6 hPa | 0 mm | - | 28 W/m² | - |
| 1777991411 | 5.56° C | 80% | 1015.3 hPa | 0 mm | - | 35 W/m² | - |
| 1777991108 | 5.56° C | 79% | 1015.3 hPa | 0 mm | - | 37 W/m² | - |
| 1777990805 | 5.56° C | 80% | 1015.6 hPa | 0 mm | - | 34 W/m² | - |
| 1777990503 | 5.56° C | 80% | 1015.3 hPa | 0 mm | - | 36 W/m² | - |
| 1777989896 | 5.56° C | 81% | 1015.3 hPa | 0 mm | - | 40 W/m² | - |
| 1777989592 | 5.56° C | 80% | 1015.4 hPa | 0 mm | - | 27 W/m² | - |
| 1777989289 | 5.56° C | 80% | 1015.4 hPa | 0 mm | - | 43 W/m² | - |
| 1777988985 | 5.56° C | 81% | 1015.3 hPa | 0 mm | - | 52 W/m² | - |
| 1777988682 | 5.56° C | 81% | 1015.3 hPa | 0 mm | - | 54 W/m² | - |
| 1777988378 | 5.56° C | 80% | 1015.6 hPa | 0 mm | - | 23 W/m² | - |
| 1777988076 | 5.56° C | 80% | 1015.3 hPa | 0 mm | - | 20 W/m² | - |
| 1777987771 | 5.56° C | 81% | 1015.3 hPa | 0 mm | - | 20 W/m² | - |
* Rain latest hour (hover to see other rain measurements)
** Current wind speed in m/s (hover to see current wind gust speed)